[[{"header":{"parameterUnit":"m.s-1","parameterCategory":1,"la1":30.2991,"la2":30.254,"lo1":-89.0895,"lo2":-89.0444,"dy":0.0017,"dx":0.0017,"nx":28,"ny":28,"refTime":"2024-06-03T03:00:00:Z","depth":0,"parameterNumber":2,"parameterNumberName":"U-component_of_WINDS"},"data":[0,0,0,0,0,0,0,0,0,0,0,0,0,0,0,0,0,0,0,0,0,0,0,0,0,0,0,0,0,0,0,0,0,0,0,0,0,0,0,0,0,0,0,0,0,0,0,0,0,0,0,0,0,0,0,0,0,0,-1.5925,-1.5925,0,-1.5882,-1.5881,-1.5881,-1.5838,-1.5837,-1.5837,-1.5836,-1.579,-1.5789,-1.5789,0,0,0,0,0,0,0,0,0,0,0,0,0,-1.597,-1.597,-1.5925,-1.5925,-1.5924,-1.5882,-1.5881,-1.5881,-1.5838,-1.5837,-1.5837,-1.5836,-1.579,-1.579,-1.5789,0,0,0,0,0,0,0,0,0,0,0,0,0,-1.5941,-1.597,-1.5925,-1.5898,-1.5895,-1.5882,-1.5881,-1.588,-1.5838,-1.5837,-1.5837,-1.5836,-1.5791,-1.579,-1.5789,-1.5799,0,0,-1.5785,-1.5785,0,0,0,0,0,0,0,0,-1.5943,-1.594,-1.5902,-1.59,-1.5896,-1.5864,-1.588,-1.5853,-1.5838,-1.586,-1.5836,-1.5835,-1.5815,-1.5812,-1.5806,-1.5796,-1.5794,-1.5785,-1.5785,-1.5784,-1.5784,0,0,0,0,0,0,0,-1.5945,-1.5941,-1.5908,-1.5902,-1.5898,-1.5887,-1.5882,-1.5875,-1.5843,-1.5858,-1.5855,-1.585,-1.5814,-1.5807,-1.5805,-1.5794,-1.5785,-1.5784,-1.5784,-1.5783,-1.579,-1.5791,0,0,0,0,0,0,-1.5951,-1.5943,-1.5909,-1.5907,-1.5918,-1.5887,-1.5882,-1.5876,-1.5843,-1.5837,-1.5851,-1.5848,-1.5809,-1.5806,-1.5803,-1.5812,-1.5784,-1.5783,-1.5783,-1.5789,-1.579,-1.5791,0,0,0,0,0,0,-1.5952,-1.5949,-1.5911,-1.5924,-1.5918,-1.5887,-1.5881,-1.5875,-1.5868,-1.5838,-1.5831,-1.585,-1.5809,-1.5804,-1.58,-1.581,-1.5783,-1.5782,-1.5788,-1.579,-1.5791,-1.5831,0,0,0,0,0,0,-1.5954,-1.5949,-1.5953,-1.5924,-1.5918,-1.591,-1.5882,-1.5875,-1.5867,-1.5863,-1.5835,-1.583,-1.5808,-1.5802,-1.5799,-1.5808,-1.5781,-1.5787,-1.5789,-1.579,-1.5829,-1.5833,-1.5837,0,0,0,0,0,-1.5956,-1.5966,-1.5953,-1.595,-1.5922,-1.591,-1.5906,-1.5881,-1.5868,-1.5871,-1.5851,-1.5831,-1.581,-1.5802,-1.5798,-1.5807,-1.5787,-1.5789,-1.579,-1.5826,-1.5832,-1.5837,0,0,0,0,0,0,-1.5995,-1.5961,-1.5947,-1.5948,-1.5933,-1.5903,-1.5906,-1.5888,-1.5875,-1.5872,-1.5841,-1.5835,-1.5834,-1.582,-1.5812,-1.5815,-1.5795,-1.5796,-1.5824,-1.5829,-1.5834,-1.5837,-1.578,0,0,0,0,0,-1.6005,-1.5998,-1.5969,-1.5972,-1.5965,-1.5937,-1.5931,-1.5913,-1.5895,-1.5888,-1.5868,-1.5851,-1.5841,-1.5834,-1.5823,-1.5827,-1.582,-1.5831,-1.5835,-1.5839,-1.584,-1.5841,-1.5846,-1.5797,-1.5797,-1.5797,0,0,-1.6023,-1.6003,-1.6001,-1.598,-1.5965,-1.5959,-1.5932,-1.5926,-1.5921,-1.5887,-1.5882,-1.5867,-1.5846,-1.5846,-1.5845,-1.5834,-1.5852,-1.5842,-1.5845,-1.5844,-1.5843,-1.5848,-1.5852,-1.5799,-1.5799,-1.5798,0,0,-1.6053,-1.6038,-1.6039,-1.6026,-1.6004,-1.5986,-1.5987,-1.596,-1.5949,-1.5943,-1.5917,-1.5911,-1.5894,-1.588,-1.587,-1.5896,-1.5877,-1.5894,-1.5916,-1.5918,-1.5921,-1.5924,-1.5933,-1.5937,-1.5895,-1.5895,-1.5895,0,-1.6078,-1.6068,-1.6042,-1.6038,-1.603,-1.6,-1.6001,-1.5988,-1.5965,-1.5959,-1.5948,-1.5926,-1.5909,-1.5906,-1.5912,-1.5906,-1.5905,-1.5896,-1.5923,-1.5926,-1.5928,-1.5936,-1.594,-1.5897,-1.5897,-1.5897,-1.5897,0,-1.61,-1.6093,-1.6097,-1.6075,-1.6067,-1.6066,-1.604,-1.6035,-1.6018,-1.6001,-1.5995,-1.5975,-1.5959,-1.5957,-1.594,-1.5951,-1.5945,-1.5929,-1.5908,-1.5936,-1.5943,-1.5945,-1.59,-1.59,-1.5899,-1.5898,0,0,-1.6152,-1.6117,-1.6119,-1.6109,-1.6084,-1.6078,-1.6076,-1.6061,-1.6057,-1.6042,-1.6038,-1.6025,-1.601,-1.6,-1.5981,-1.5982,-1.6004,-1.5966,-1.5965,-1.5973,-1.6014,-1.6025,-1.6029,-1.5991,-1.5992,-1.5992,-1.6015,0,-1.6177,-1.6171,-1.6148,-1.6149,-1.6142,-1.6114,-1.6112,-1.6096,-1.6081,-1.6073,-1.6055,-1.6046,-1.6027,-1.602,-1.602,-1.6001,-1.6011,-1.5999,-1.5987,-1.5987,-1.5992,-1.6033,-1.6045,-1.6068,-1.6018,-1.6018,-1.6019,0,-1.6205,-1.6193,-1.6193,-1.6169,-1.6165,-1.6163,-1.6148,-1.6141,-1.6123,-1.6111,-1.61,-1.608,-1.6075,-1.6057,-1.605,-1.6043,-1.6036,-1.6026,-1.6027,-1.6024,-1.6004,-1.603,-1.6075,-1.6078,-1.6023,-1.6022,-1.6022,0,-1.6243,-1.6226,-1.6224,-1.6216,-1.6188,-1.6187,-1.6176,-1.6156,-1.6149,-1.6136,-1.6131,-1.6117,-1.6109,-1.6099,-1.6075,-1.6064,-1.6071,-1.6051,-1.606,-1.6061,-1.6062,-1.6062,-1.6105,-1.606,-1.606,-1.606,-1.606,0,-1.6273,-1.6274,-1.6241,-1.6239,-1.624,-1.6213,-1.6214,-1.62,-1.6183,-1.6178,-1.6153,-1.6149,-1.6119,-1.6111,-1.6093,-1.609,-1.6086,-1.6076,-1.6071,-1.6078,-1.6079,-1.6073,-1.607,-1.6061,-1.606,-1.606,-1.606,0,-1.6314,-1.6292,-1.6288,-1.6262,-1.6255,-1.6257,-1.6234,-1.6232,-1.6215,-1.6209,-1.6206,-1.6179,-1.6169,-1.6145,-1.6128,-1.6115,-1.6117,-1.6108,-1.6123,-1.612,-1.6131,-1.613,-1.617,-1.6174,-1.6127,-1.6128,-1.6128,0,-1.6334,-1.6335,-1.6309,-1.6304,-1.6293,-1.6286,-1.6278,-1.6253,-1.6246,-1.6226,-1.6226,-1.6214,-1.6203,-1.6188,-1.6166,-1.6153,-1.6143,-1.6159,-1.6141,-1.6148,-1.6143,-1.6143,-1.6143,-1.6162,-1.6163,-1.6163,-1.6164,0,-1.6372,-1.6361,-1.6352,-1.6339,-1.6331,-1.6319,-1.6306,-1.6304,-1.6275,-1.6269,-1.6258,-1.625,-1.6233,-1.6221,-1.6205,-1.6192,-1.6173,-1.617,-1.6171,-1.6178,-1.6186,-1.6181,-1.6133,-1.6169,-1.6168,-1.6168,-1.6168,-1.6167,-1.6403,-1.6402,-1.6384,-1.6374,-1.6362,-1.635,-1.6347,-1.633,-1.6321,-1.6306,-1.6291,-1.6282,-1.6264,-1.6241,-1.6229,-1.6222,-1.6212,-1.6214,-1.6214,-1.6215,-1.6218,-1.6188,-1.6219,-1.6219,-1.6218,-1.6218,-1.6218,0,-1.6439,-1.6426,-1.6418,-1.64,-1.6393,-1.6377,-1.6362,-1.6356,-1.6349,-1.6334,-1.6324,-1.6312,-1.6301,-1.6279,-1.6266,-1.6264,-1.6254,-1.6261,-1.626,-1.6257,-1.6228,-1.6228,-1.6268,-1.6268,-1.6268,-1.6268,-1.6268,-1.6268,-1.6457,-1.6454,-1.6441,-1.6432,-1.6419,-1.6411,-1.6403,-1.6393,-1.6381,-1.6369,-1.6359,-1.6346,-1.6328,-1.6313,-1.6302,-1.6296,-1.6292,-1.6301,-1.6292,-1.6264,-1.626,-1.6255,-1.6255,-1.63,-1.63,-1.6322,-1.6322,-1.6322]},{"header":{"parameterUnit":"m.s-1","parameterCategory":1,"la1":30.2991,"la2":30.254,"lo1":-89.0895,"lo2":-89.0444,"dy":0.0017,"dx":0.0017,"nx":28,"ny":28,"refTime":"2024-06-03T03:00:00:Z","depth":0,"parameterNumber":3,"parameterNumberName":"V-component_of_WINDS"},"data":[0,0,0,0,0,0,0,0,0,0,0,0,0,0,0,0,0,0,0,0,0,0,0,0,0,0,0,0,0,0,0,0,0,0,0,0,0,0,0,0,0,0,0,0,0,0,0,0,0,0,0,0,0,0,0,0,0,0,5.2765,5.2765,0,5.2774,5.2774,5.2774,5.2707,5.2705,5.2703,5.2701,5.271,5.2712,5.2714,0,0,0,0,0,0,0,0,0,0,0,0,0,5.2688,5.269,5.2765,5.2765,5.2765,5.2774,5.2774,5.2774,5.2707,5.2705,5.2702,5.27,5.2709,5.2712,5.2714,0,0,0,0,0,0,0,0,0,0,0,0,0,5.2712,5.269,5.2765,5.2733,5.273,5.2774,5.2774,5.2774,5.2707,5.2705,5.2702,5.2699,5.2708,5.2711,5.2714,5.2789,0,0,5.2723,5.2725,0,0,0,0,0,0,0,0,5.271,5.2714,5.2737,5.2735,5.2732,5.2736,5.275,5.2779,5.2708,5.2716,5.2701,5.2698,5.2721,5.2723,5.2731,5.279,5.279,5.2724,5.2725,5.2727,5.2728,0,0,0,0,0,0,0,5.2709,5.2714,5.2768,5.2738,5.2734,5.2717,5.2717,5.2755,5.2734,5.2715,5.271,5.2712,5.2719,5.2728,5.273,5.279,5.2724,5.2726,5.2728,5.2729,5.291,5.2913,0,0,0,0,0,0,5.2712,5.2713,5.2768,5.2768,5.2714,5.2721,5.2721,5.2738,5.2733,5.273,5.2715,5.2709,5.2724,5.2727,5.273,5.2817,5.2727,5.273,5.2731,5.2907,5.2911,5.2914,0,0,0,0,0,0,5.271,5.2717,5.2767,5.2739,5.2744,5.2725,5.2744,5.2739,5.2748,5.2733,5.2729,5.2728,5.2722,5.2726,5.2775,5.2817,5.2731,5.2734,5.2904,5.2908,5.2913,5.2992,0,0,0,0,0,0,5.2708,5.2717,5.2746,5.274,5.2746,5.2813,5.2747,5.2741,5.2754,5.2746,5.2744,5.2741,5.272,5.2771,5.2778,5.2819,5.2736,5.29,5.2906,5.2911,5.2986,5.2999,5.301,0,0,0,0,0,5.2706,5.2768,5.2748,5.2755,5.2782,5.2815,5.2818,5.2793,5.2757,5.2786,5.2776,5.2741,5.2811,5.2776,5.2784,5.2827,5.2897,5.2904,5.2911,5.298,5.2996,5.301,0,0,0,0,0,0,5.2779,5.2767,5.2744,5.2806,5.2812,5.2804,5.2839,5.2811,5.2827,5.2819,5.2787,5.2787,5.2841,5.2838,5.28,5.2898,5.2848,5.2856,5.2898,5.2913,5.2925,5.2925,5.2738,0,0,0,0,0,5.2802,5.2831,5.2818,5.2875,5.2879,5.2859,5.2872,5.2852,5.2857,5.2859,5.2852,5.2858,5.2881,5.2897,5.2917,5.2985,5.2983,5.3018,5.303,5.304,5.3048,5.3083,5.3098,5.2936,5.2936,5.2936,0,0,5.2851,5.2848,5.2868,5.2889,5.2892,5.2921,5.2861,5.2895,5.2917,5.2864,5.291,5.2905,5.2909,5.2968,5.2993,5.2967,5.3092,5.3049,5.3057,5.306,5.3092,5.3107,5.3121,5.2941,5.294,5.2939,0,0,5.2955,5.2956,5.3002,5.3006,5.3009,5.2995,5.3007,5.3002,5.2997,5.3042,5.3003,5.3028,5.3068,5.3073,5.308,5.3185,5.3153,5.3192,5.3256,5.329,5.3303,5.3314,5.3351,5.3365,5.32,5.32,5.32,0,5.3015,5.3059,5.303,5.3067,5.3077,5.303,5.3076,5.3081,5.3091,5.3099,5.307,5.3119,5.3119,5.3177,5.3203,5.3211,5.3222,5.3192,5.3304,5.3315,5.3325,5.3359,5.3373,5.3205,5.3204,5.3204,5.3203,0,5.3132,5.3163,5.32,5.3211,5.3225,5.3267,5.3244,5.3262,5.324,5.3229,5.3275,5.3272,5.3291,5.3303,5.3283,5.3359,5.3343,5.3309,5.3258,5.3345,5.3377,5.339,5.3212,5.321,5.3208,5.3207,0,0,5.3283,5.3277,5.3291,5.3295,5.3296,5.3319,5.3357,5.3376,5.3391,5.34,5.3432,5.3466,5.3435,5.3444,5.3423,5.3453,5.3535,5.3415,5.3415,5.3438,5.3619,5.3644,5.366,5.3515,5.3517,5.3519,5.3618,0,5.3385,5.3451,5.3426,5.3494,5.3521,5.3476,5.351,5.3514,5.3504,5.3526,5.3515,5.354,5.3497,5.3502,5.353,5.352,5.3571,5.3512,5.3543,5.3545,5.3544,5.3677,5.3704,5.3798,5.3631,5.3633,5.3634,0,5.3512,5.3525,5.3596,5.3591,5.3601,5.3632,5.3646,5.3668,5.3671,5.3661,5.3671,5.3643,5.368,5.3628,5.3679,5.3639,5.365,5.3647,5.365,5.3652,5.3595,5.3683,5.3827,5.3842,5.3654,5.3652,5.3651,0,5.3615,5.3651,5.3697,5.3702,5.3697,5.372,5.3719,5.3719,5.3731,5.3743,5.375,5.3767,5.3776,5.3789,5.3767,5.3731,5.382,5.3767,5.3814,5.3814,5.3835,5.3834,5.3983,5.3842,5.3842,5.3842,5.3841,0,5.3731,5.3776,5.3744,5.3773,5.3821,5.3791,5.384,5.3834,5.3834,5.3861,5.3823,5.3848,5.3817,5.3839,5.3821,5.3866,5.387,5.3864,5.3858,5.3867,5.3868,5.3874,5.3867,5.3845,5.3845,5.3844,5.3843,0,5.3855,5.3835,5.3883,5.3874,5.3872,5.3909,5.3901,5.3927,5.3914,5.3948,5.3954,5.3934,5.3958,5.3937,5.396,5.3948,5.4007,5.3993,5.4007,5.4002,5.405,5.4046,5.4209,5.4229,5.4075,5.4077,5.4078,0,5.3931,5.3964,5.3958,5.3973,5.3974,5.3999,5.4011,5.3982,5.3996,5.4001,5.4026,5.4047,5.4063,5.4104,5.4091,5.4109,5.4094,5.415,5.4097,5.4104,5.4095,5.4093,5.4096,5.4161,5.4163,5.4165,5.4166,0,5.4067,5.4055,5.4073,5.4089,5.4104,5.4115,5.4122,5.4137,5.4107,5.4124,5.4149,5.4161,5.4184,5.4205,5.4219,5.4217,5.4187,5.4183,5.4194,5.4204,5.421,5.4207,5.4036,5.4179,5.4178,5.4177,5.4176,5.4175,5.4168,5.4196,5.4196,5.4217,5.422,5.4228,5.4251,5.4241,5.4261,5.4278,5.4259,5.4289,5.4289,5.4304,5.4306,5.4329,5.4305,5.4322,5.4327,5.4331,5.4338,5.4206,5.4331,5.4331,5.433,5.433,5.433,0,5.4302,5.43,5.432,5.4332,5.4349,5.4318,5.4324,5.4341,5.4367,5.437,5.4386,5.4413,5.4433,5.4422,5.4439,5.4459,5.4446,5.4465,5.4463,5.4463,5.4358,5.4346,5.4476,5.4476,5.4476,5.4476,5.4476,5.4476,5.4374,5.4419,5.4407,5.4451,5.4448,5.4476,5.4483,5.4489,5.4492,5.4524,5.454,5.4533,5.453,5.4546,5.4563,5.4559,5.4568,5.4592,5.4583,5.4485,5.4471,5.4457,5.4446,5.4594,5.4594,5.4686,5.4687,5.4688]}]]